Location: �bnet
(46.9957°N, 8.4908°E)
Time: 01:09:21
(UTC+00:00)

Cosmos 1943 Rocket - Pass Details

Date: 11 May 2021
Orbit: 814 x 842 km, 71.0° (Epoch: 18 June)

Event Time Altitude Azimuth Distance (km) Brightness Sun altitude
Exits shadow 20:32:27 10° 94° (E) 2,414 4.2 -14.5°
Drops below altitude 10° 20:33:23 10° 84° (E) 2,448 4.3 -14.6°
Sets 20:38:15 0° 47° (NE) 3,381 5.4 -15.2°
